TimeCST,TemperatureF,Dew PointF,Humidity,Sea Level PressureIn,VisibilityMPH,Wind Direction,Wind SpeedMPH,Gust SpeedMPH,PrecipitationIn,Events,Conditions,WindDirDegrees,DateUTC
12:15 AM,24.8,21.0,86,30.07,10.0,NW,9.2,-,N/A,,Clear,320,2013-01-14 06:15:00
12:35 AM,24.8,21.0,86,30.08,10.0,NNW,6.9,-,N/A,,Clear,330,2013-01-14 06:35:00
12:55 AM,24.4,20.8,86,30.08,10.0,North,5.8,-,N/A,,Clear,350,2013-01-14 06:55:00
1:15 AM,24.3,21.2,88,30.09,10.0,NNW,4.6,-,N/A,,Clear,330,2013-01-14 07:15:00
1:35 AM,24.4,21.4,88,30.11,10.0,NW,4.6,-,N/A,,Clear,310,2013-01-14 07:35:00
1:55 AM,24.1,21.2,89,30.11,10.0,NW,5.8,-,N/A,,Clear,320,2013-01-14 07:55:00
2:15 AM,23.9,20.8,88,30.11,10.0,NNE,3.5,-,N/A,,Clear,20,2013-01-14 08:15:00
2:35 AM,23.5,21.0,90,30.11,10.0,North,3.5,-,N/A,,Clear,360,2013-01-14 08:35:00
2:55 AM,23.5,21.4,91,30.11,10.0,Calm,Calm,-,N/A,,Clear,0,2013-01-14 08:55:00
3:35 AM,22.5,21.0,94,30.12,10.0,NW,6.9,-,N/A,,Clear,310,2013-01-14 09:35:00
4:15 AM,22.6,21.2,94,30.11,10.0,Calm,Calm,-,N/A,,Overcast,0,2013-01-14 10:15:00
4:35 AM,23.2,21.7,94,30.11,10.0,NNW,5.8,-,N/A,,Overcast,340,2013-01-14 10:35:00
4:55 AM,23.9,22.6,95,30.11,10.0,North,6.9,-,N/A,,Overcast,10,2013-01-14 10:55:00
5:15 AM,23.9,22.6,95,30.10,10.0,North,5.8,-,N/A,,Overcast,10,2013-01-14 11:15:00
5:35 AM,23.7,22.6,96,30.11,10.0,North,8.1,-,N/A,,Overcast,10,2013-01-14 11:35:00
5:55 AM,23.7,22.6,96,30.10,10.0,NNE,5.8,-,N/A,,Overcast,30,2013-01-14 11:55:00
6:15 AM,23.4,22.3,96,30.10,10.0,NE,4.6,-,N/A,,Overcast,40,2013-01-14 12:15:00
6:35 AM,23.2,22.1,96,30.11,10.0,NNE,4.6,-,N/A,,Overcast,30,2013-01-14 12:35:00
6:55 AM,23.0,21.7,95,30.10,10.0,NE,3.5,-,N/A,,Overcast,50,2013-01-14 12:55:00
7:15 AM,23.0,21.7,95,30.11,10.0,NE,3.5,-,N/A,,Overcast,50,2013-01-14 13:15:00
7:55 AM,23.4,22.1,95,30.13,10.0,Calm,Calm,-,N/A,,Overcast,0,2013-01-14 13:55:00
8:15 AM,23.5,21.9,94,30.14,10.0,Calm,Calm,-,N/A,,Overcast,0,2013-01-14 14:15:00
8:35 AM,23.4,21.9,94,30.14,10.0,Calm,Calm,-,N/A,,Overcast,0,2013-01-14 14:35:00
8:55 AM,23.4,21.9,94,30.14,10.0,Calm,Calm,-,N/A,,Overcast,0,2013-01-14 14:55:00
9:15 AM,23.5,22.1,94,30.14,10.0,Calm,Calm,-,N/A,,Overcast,0,2013-01-14 15:15:00
9:35 AM,23.7,22.1,94,30.14,10.0,Calm,Calm,-,N/A,,Overcast,0,2013-01-14 15:35:00
9:55 AM,23.9,22.3,94,30.14,10.0,North,3.5,-,N/A,,Overcast,360,2013-01-14 15:55:00
10:15 AM,23.9,22.1,93,30.15,10.0,Calm,Calm,-,N/A,,Overcast,0,2013-01-14 16:15:00
10:35 AM,24.3,22.5,93,30.15,10.0,NNE,5.8,-,N/A,,Overcast,30,2013-01-14 16:35:00
10:55 AM,24.8,22.8,92,30.15,10.0,ENE,4.6,-,N/A,,Overcast,60,2013-01-14 16:55:00
11:15 AM,24.8,23.0,93,30.14,10.0,North,3.5,-,N/A,,Overcast,360,2013-01-14 17:15:00
11:35 AM,24.6,22.8,93,30.13,10.0,North,3.5,-,N/A,,Overcast,10,2013-01-14 17:35:00
11:55 AM,25.0,23.0,92,30.12,10.0,NE,4.6,-,N/A,,Overcast,40,2013-01-14 17:55:00
12:15 PM,25.3,22.8,90,30.11,10.0,Calm,Calm,-,N/A,,Overcast,0,2013-01-14 18:15:00
12:35 PM,25.7,23.0,89,30.09,10.0,North,3.5,-,N/A,,Overcast,360,2013-01-14 18:35:00
12:55 PM,26.4,23.4,88,30.08,10.0,North,4.6,-,N/A,,Overcast,10,2013-01-14 18:55:00
1:15 PM,27.1,23.7,87,30.07,10.0,North,5.8,-,N/A,,Overcast,360,2013-01-14 19:15:00
1:35 PM,27.3,23.4,85,30.06,10.0,North,5.8,-,N/A,,Overcast,360,2013-01-14 19:35:00
1:55 PM,27.5,23.4,84,30.05,10.0,North,5.8,-,N/A,,Overcast,360,2013-01-14 19:55:00
2:15 PM,28.0,23.5,83,30.04,10.0,North,6.9,-,N/A,,Overcast,360,2013-01-14 20:15:00
2:35 PM,28.2,23.5,83,30.04,10.0,North,9.2,-,N/A,,Overcast,360,2013-01-14 20:35:00
2:55 PM,28.2,23.5,83,30.04,10.0,North,9.2,-,N/A,,Overcast,360,2013-01-14 20:55:00
3:15 PM,28.4,23.7,83,30.05,10.0,North,8.1,-,N/A,,Overcast,360,2013-01-14 21:15:00
3:35 PM,28.6,24.1,83,30.06,10.0,North,8.1,-,N/A,,Overcast,360,2013-01-14 21:35:00
3:55 PM,29.1,24.4,83,30.06,10.0,North,8.1,-,N/A,,Overcast,10,2013-01-14 21:55:00
4:15 PM,29.1,24.3,82,30.06,10.0,North,9.2,-,N/A,,Overcast,360,2013-01-14 22:15:00
4:35 PM,29.5,24.4,81,30.06,10.0,NNE,5.8,-,N/A,,Overcast,20,2013-01-14 22:35:00
4:55 PM,30.4,24.6,79,30.06,10.0,North,8.1,-,N/A,,Overcast,350,2013-01-14 22:55:00
5:15 PM,30.2,24.1,78,30.06,10.0,NW,6.9,-,N/A,,Mostly Cloudy,320,2013-01-14 23:15:00
5:35 PM,30.7,23.9,76,30.07,10.0,North,6.9,-,N/A,,Mostly Cloudy,10,2013-01-14 23:35:00
5:55 PM,30.4,23.7,76,30.07,10.0,North,6.9,-,N/A,,Scattered Clouds,360,2013-01-14 23:55:00
6:15 PM,29.7,23.5,78,30.08,10.0,North,8.1,-,N/A,,Scattered Clouds,10,2013-01-15 00:15:00
6:35 PM,28.4,23.0,80,30.08,10.0,North,8.1,-,N/A,,Clear,10,2013-01-15 00:35:00
6:55 PM,27.5,22.8,83,30.10,10.0,NNE,5.8,-,N/A,,Scattered Clouds,30,2013-01-15 00:55:00
7:15 PM,27.0,22.6,84,30.10,10.0,NNE,4.6,-,N/A,,Overcast,30,2013-01-15 01:15:00
7:35 PM,26.8,22.5,84,30.11,10.0,NE,4.6,-,N/A,,Mostly Cloudy,40,2013-01-15 01:35:00
7:55 PM,25.3,21.9,87,30.11,10.0,NE,4.6,-,N/A,,Scattered Clouds,50,2013-01-15 01:55:00
8:15 PM,24.4,21.6,89,30.12,10.0,Calm,Calm,-,N/A,,Clear,0,2013-01-15 02:15:00
8:35 PM,24.6,21.0,86,30.12,10.0,Calm,Calm,-,N/A,,Clear,0,2013-01-15 02:35:00
8:55 PM,24.4,21.2,87,30.12,10.0,Calm,Calm,-,N/A,,Clear,0,2013-01-15 02:55:00
9:15 PM,23.4,20.8,90,30.11,10.0,ESE,5.8,-,N/A,,Clear,110,2013-01-15 03:15:00
9:35 PM,22.6,20.3,91,30.10,10.0,Calm,Calm,-,N/A,,Clear,0,2013-01-15 03:35:00
9:55 PM,21.7,19.6,91,30.11,10.0,West,4.6,-,N/A,,Clear,280,2013-01-15 03:55:00
10:15 PM,20.7,19.0,93,30.11,10.0,Calm,Calm,-,N/A,,Clear,0,2013-01-15 04:15:00
10:35 PM,21.6,19.6,92,30.11,10.0,NW,3.5,-,N/A,,Clear,320,2013-01-15 04:35:00
10:55 PM,21.6,19.6,92,30.11,10.0,Calm,Calm,-,N/A,,Clear,0,2013-01-15 04:55:00
11:15 PM,21.7,19.6,91,30.11,10.0,Calm,Calm,-,N/A,,Clear,0,2013-01-15 05:15:00
11:35 PM,22.1,19.8,91,30.11,10.0,Calm,Calm,-,N/A,,Clear,0,2013-01-15 05:35:00
11:55 PM,21.2,18.9,91,30.11,10.0,Calm,Calm,-,N/A,,Clear,0,2013-01-15 05:55:00